Find Starlink 32792

NORAD ID: 62504 Int'l Des: 2025-003 Owner: SPXS Country: US Constellation: starlink operational
LEOCIRCULAR

实时位置

正在加载3D地球...

关于 Starlink 32792

正在加载描述...

即将过境

Passes for default location (London). Set your location on the main map for personalized predictions.

高度历史

Loading altitude history...

两行轨道根数

1 62504U 25003T 26123.98789096 .00028273 00000-0 10326-2 0 9993
2 62504 43.0026 336.2436 0001659 256.8701 103.1965 15.27593384 75016
Epoch: May 3, 2026 • Age: 18 hours

当前状态

高度 494.7 km
速度 7.62 km/s
星下点 -41.98°S, 122.63°E
发射日期 Jan 6, 2025
运行时间 1.3 years
类型 internet

技术详情

分类 Payload
质量 730.00 kg
干质量 700.00 kg
总质量 730.00 kg
长度 0.30 m
直径 4.10 m
跨度 29.00 m
形状 Box + pan
制造商 SPXS
平台类型 Starlink V2M
阶段状态 In Orbit
所有者/国家 SPXS/US

Most Searched